EW7665 Weather Reports


Display with metric or nautical units.
time (UTC)temp
F
wind
direction
speed
MPH
gust
MPH
rain 1hr
in
rain 24hr
in
rain mn
in
humidity
%
barometer
mb
20260507003050 61 286 0.0 1.0 0.00 0.01 0.00 32 1016.8
20260507001552 60 280 0.0 2.0 0.00 0.01 0.00 32 1016.9
20260507000051 62 281 3.0 3.0 0.00 0.01 0.00 33 1016.8
20260506234548 62 0 1.0 1.0 0.00 0.01 0.00 33 1016.7
20260506233054 62 291 4.0 4.0 0.00 0.01 0.00 33 1016.8
20260506231554 62 303 2.0 4.0 0.00 0.01 0.00 30 1016.8
20260506230053 63 259 4.0 4.0 0.00 0.01 0.00 30 1017.0
20260506224556 63 281 1.0 7.0 0.00 0.01 0.00 30 1016.8
20260506223048 62 294 1.0 3.0 0.00 0.01 0.00 30 1016.8
20260506221553 62 281 1.0 3.0 0.00 0.01 0.00 30 1017.0
20260506220055 62 54 1.0 3.0 0.00 0.01 0.00 30 1017.1
20260506214554 62 287 3.0 4.0 0.00 0.01 0.00 31 1017.2
20260506213044 61 277 2.0 7.0 0.00 0.01 0.00 31 1017.3
20260506211551 60 240 2.0 4.0 0.00 0.01 0.00 31 1017.6
20260506210052 60 60 2.0 3.0 0.00 0.01 0.00 33 1017.9
20260506204553 60 30 2.0 7.0 0.00 0.01 0.00 33 1018.1
20260506203053 59 311 6.0 9.0 0.00 0.01 0.00 34 1018.3
20260506201607 60 287 1.0 3.0 0.00 0.01 0.00 34 1018.6
20260506200048 60 92 3.0 4.0 0.00 0.01 0.00 34 1018.7
20260506194552 59 300 2.0 4.0 0.00 0.01 0.00 34 1019.0
20260506193053 59 250 4.0 4.0 0.00 0.01 0.00 34 1018.9
20260506191549 58 76 2.0 2.0 0.00 0.01 0.00 34 1018.9
20260506190051 58 24 2.0 2.0 0.00 0.01 0.00 39 1018.9
20260506184554 57 91 0.0 4.0 0.00 0.01 0.00 39 1018.8
20260506183048 57 113 1.0 1.0 0.00 0.01 0.00 39 1018.9
20260506181552 57 277 6.0 6.0 0.00 0.01 0.00 45 1019.2
20260506180049 56 79 1.0 2.0 0.00 0.01 0.00 45 1019.1
20260506174546 57 290 2.0 6.0 0.00 0.01 0.00 45 1019.4
20260506173112 56 103 3.0 3.0 0.00 0.01 0.00 44 1019.5
20260506171558 56 62 0.0 2.0 0.00 0.01 0.00 44 1019.7
20260506170054 55 288 0.0 3.0 0.00 0.01 0.00 44 1019.8
20260506164554 53 291 2.0 3.0 0.00 0.01 0.00 56 1020.0
20260506163103 53 220 2.0 4.0 0.00 0.01 0.00 56 1019.7
20260506161603 52 291 2.0 3.0 0.00 0.01 0.00 56 1019.8
20260506160051 51 272 3.0 4.0 0.00 0.01 0.00 64 1019.7
20260506154602 51 257 3.0 3.0 0.00 0.03 0.00 64 1019.9
20260506153057 51 276 2.0 4.0 0.00 0.03 0.00 64 1019.7
20260506151551 51 287 3.0 3.0 0.00 0.03 0.00 64 1019.9
20260506150048 51 259 2.0 2.0 0.00 0.03 0.00 64 1019.6
20260506144550 50 267 1.0 2.0 0.00 0.11 0.00 64 1019.4
20260506143051 50 270 2.0 3.0 0.00 0.11 0.00 72 1019.5
20260506141557 49 328 2.0 4.0 0.00 0.11 0.00 72 1019.3
20260506140059 48 278 0.0 2.0 0.00 0.11 0.00 72 1019.3
20260506134553 48 290 0.0 1.0 0.00 0.11 0.00 76 1019.3
20260506133051 48 274 0.0 1.0 0.00 0.11 0.00 76 1019.0
20260506131552 47 0 0.0 1.0 0.00 0.11 0.00 79 1018.7
20260506130056 46 288 0.0 1.0 0.00 0.11 0.00 79 1018.5
20260506124551 46 269 1.0 1.0 0.00 0.14 0.00 79 1018.3
20260506123055 46 278 0.0 1.0 0.00 0.14 0.00 82 1017.9
20260506121550 44 266 0.0 0.0 0.00 0.14 0.00 82 1017.7
20260506120107 44 0 0.0 0.0 0.00 0.14 0.00 82 1017.2
20260506114603 44 0 0.0 0.0 0.00 0.16 0.00 76 1016.8
20260506113047 44 0 0.0 0.0 0.00 0.16 0.00 76 1016.6
20260506111553 45 0 0.0 0.0 0.00 0.16 0.00 76 1016.3
20260506110050 45 0 0.0 0.0 0.00 0.16 0.00 71 1016.4
20260506104550 45 0 0.0 0.0 0.00 0.16 0.00 71 1016.2
20260506103052 46 0 0.0 0.0 0.00 0.16 0.00 71 1016.1
20260506101547 47 130 0.0 0.0 0.00 0.16 0.00 64 1016.6
20260506100051 47 0 0.0 2.0 0.00 0.16 0.00 64 1017.2
20260506094548 47 80 1.0 1.0 0.00 0.16 0.00 64 1017.1
20260506093108 48 287 0.0 3.0 0.00 0.16 0.00 81 1017.3
20260506091558 48 46 5.0 5.0 0.00 0.16 0.00 81 1017.1
20260506090054 47 273 0.0 3.0 0.00 0.16 0.00 81 1016.7
20260506084546 46 268 1.0 1.0 0.00 0.16 0.00 79 1016.3
20260506083053 47 0 0.0 0.0 0.00 0.16 0.00 79 1015.9
20260506081551 47 0 0.0 0.0 0.00 0.16 0.00 79 1016.1
20260506073059 47 0 0.0 0.0 0.00 0.16 0.00 76 1016.0
20260506071547 46 269 0.0 0.0 0.00 0.16 0.00 77 1015.9
20260506061559 47 0 0.0 0.0 0.00 0.16 0.00 74 1014.9
20260506044556 48 90 1.0 7.0 0.01 0.16 0.16 69 1015.0
20260506043053 49 204 0.0 4.0 0.01 0.16 0.16 74 1015.5
20260506041605 50 295 0.0 2.0 0.00 0.15 0.15 74 1015.5
20260506040056 50 334 1.0 2.0 0.00 0.15 0.15 74 1015.5
20260506034551 50 0 0.0 0.0 0.00 0.15 0.15 76 1015.2
20260506033052 51 0 0.0 0.0 0.00 0.15 0.15 76 1015.0
20260506031553 51 0 0.0 0.0 0.00 0.15 0.15 76 1014.7
20260506030049 51 0 0.0 0.0 0.00 0.15 0.15 70 1014.6
20260506024551 51 0 0.0 0.0 0.00 0.15 0.15 70 1014.0
20260506023056 51 0 0.0 0.0 0.00 0.15 0.15 70 1013.5
20260506021549 52 0 0.0 0.0 0.00 0.15 0.15 69 1012.7
20260506020116 52 0 0.0 0.0 0.00 0.15 0.15 69 1012.7
20260506014547 52 0 0.0 0.0 0.00 0.15 0.15 69 1012.5
20260506013050 53 0 0.0 0.0 0.00 0.15 0.15 61 1012.5
20260506011551 53 0 0.0 0.0 0.00 0.15 0.15 61 1012.5
20260506010050 54 107 0.0 0.0 0.00 0.15 0.15 61 1012.3
20260506004550 54 0 0.0 0.0 0.00 0.15 0.15 52 1012.2